Vertical_Velocity
1 -1 -2 0 -4 -2 7 -8 -14 -4 7 -5 -6 -3 -9 -4 1 -1 -0 -0 -1 3 -2 1 3 4 -0 -0 0 1 1 -2 -1 1 -6 -1 -2 -1 -2 5 6 -2 -1 -3
-0 2 -4 -4 -2 -3 7 -4 -8 -5 2 -14 3 1 -4 -4 -1 -1 -2 -1 -2 2 2 5 2 -1 -1 -2 -3 1 2 2 -0 0 -2 -1 -3 -0 -1 -1 -1 -7 5 8
1 -1 2 -4 -1 -0 -2 -2 -3 -2 -2 -0 -6 -2 -3 -1 0 -1 -3 -3 -4 -5 -3 -2 -3 -2 -1 1 0 -2 -4 -2 0 1 4 -1 1 2 -1 0 2 2 -7 2
0 2 -2 2 -1 -2 3 -5 2 -1 -0 1 -3 -3 -2 -2 -2 1 1 1 0 -1 2 0 0 0 -1 -0 0 -0 0 -1 0 1 -0 0 -0 -0 4 -3 -2 -0 2 -2
-2 0 1 -1 -2 1 0 -2 -5 2 5 -0 -1 -0 -0 -1 -0 -2 -4 -5 -3 -2 -3 -2 -2 -1 -2 -2 -2 -2 -1 -2 -3 -9 -3 -0 -4 1 -0 -0 -1 -8 -0 -14
-2 -1 -2 1 1 -2 5 -2 -3 -0 -2 -0 -1 2 2 3 -0 -2 -2 -2 -3 -4 -3 -3 -1 -0 1 1 1 0 -0 -1 -2 -5 -1 -1 -6 -2 -3 1 -1 5 -5 5
-3 -2 0 -1 0 2 -2 1 4 -2 -4 -4 -2 3 1 -1 -1 1 0 0 2 2 2 1 -0 -2 -0 0 -1 -2 -2 -1 -2 -8 -2 2 -2 -2 -1 -2 -0 -0 -2 1
-0 -4 -5 -2 -1 -2 1 -0 -2 2 2 1 3 -0 -0 0 2 2 -1 1 2 0 1 -2 -1 -4 -1 -2 -1 -1 0 2 -1 -0 2 -15 -8 -6 -1 2 -5 -2 -4 4
-1 -2 -2 -6 -4 -1 -2 -2 -1 -3 -2 -2 -2 -1 -0 1 -3 -2 2 2 -1 -1 -0 -0 0 2 -1 1 -0 2 3 3 -0 6 2 0 -1 -1 -1 -3 -8 -2 -1 -0
2 1 -1 -1 -5 -2 -0 1 2 1 -3 -2 -2 -0 -2 -3 -3 0 0 -3 -2 1 -2 -1 1 3 -0 0 1 -1 -0 -0 -4 1 -2 -10 -6 1 -1 -1 -3 -2 -3 -2
2 3 -2 2 -2 -6 -2 0 1 2 3 1 -1 -1 -1 -3 -1 0 -6 -5 -2 0 4 2 -0 -0 -4 -3 -3 -3 0 -0 -5 3 3 -8 -1 -0 -5 -1 -2 -2 -2 -1
2 1 2 -1 1 2 -2 -8 -3 1 -1 1 -3 -1 -1 1 0 2 -2 -1 -1 -3 -4 -2 1 -1 -0 2 -3 -3 -6 -7 1 -8 -1 -1 2 3 4 1 2 1 1 -1
-2 1 -1 -2 -1 -0 3 4 -2 -6 -4 3 1 1 1 1 -1 1 -0 -2 -0 -2 3 -1 -1 -4 1 -2 -4 6 -7 4 -8 6 -1 2 -1 2 3 3 2 -1 -2 -3
-1 -2 -1 -3 -2 2 3 -1 -2 -2 -5 -10 2 3 2 2 2 4 4 3 4 5 -0 -2 -1 -1 -4 -6 -5 -2 6 -3 3 -4 -2 5 1 -3 -3 -2 -3 -4 -4 -4
-3 0 0 -0 -6 -4 -1 -1 -2 0 -3 -5 -2 -1 5 2 2 0 3 4 3 5 5 2 -3 -1 2 3 -5 -7 8 0 0 -2 -4 1 -2 -0 0 -1 -2 -1 1 0
-1 -1 -0 -0 2 -5 -1 0 1 -3 -1 -3 -3 -3 -4 -1 1 3 2 3 2 2 1 1 -4 5 4 -5 -17 2 3 1 2 -4 -5 -2 -7 -3 -1 1 1 1 -1 -2
0 -4 1 -0 -0 2 -2 -1 -1 -4 -3 -4 -3 -4 -1 -6 -3 2 4 2 1 1 -2 -6 2 -0 10 -9 -33 17 0 2 5 5 0 2 3 -2 -2 -4 -2 -3 -3 -3
-1 0 -3 -0 -1 -2 2 -0 -1 0 -1 -5 -7 -6 -6 6 1 -7 -2 2 4 -2 0 -3 2 3 9 -49 13 14 2 -4 -1 6 2 4 -1 4 1 1 1 2 5 1
1 -1 1 -3 -2 -2 -1 -0 1 2 -1 1 -12 3 -3 0 -1 3 -2 -2 -4 -3 -2 4 -0 2 -35 9 3 9 5 -4 -1 3 -2 4 5 5 3 0 3 2 4 2
-0 -0 -1 -5 -3 0 1 -2 -1 -1 1 -6 -28 3 8 8 2 3 5 1 -3 1 -7 3 -7 -27 13 7 2 2 4 -0 -4 -3 2 -4 -1 -2 2 2 2 3 2 2
0 -7 -1 6 -2 4 -2 -2 1 -0 -1 -3 -5 2 11 3 5 4 0 3 2 1 -1 0 -5 -22 7 -1 -0 2 4 5 -3 0 -2 -1 -2 -2 -4 -3 -1 -0 -0 -4
3 1 -0 1 1 -3 -2 4 4 1 0 -2 -4 3 3 3 4 4 5 -1 2 1 3 -1 -9 4 -5 -1 -3 -4 5 6 4 -1 3 -5 -3 1 3 -0 -1 -3 -2 0
3 6 3 2 -7 0 -0 0 -7 -3 1 4 5 -0 1 -0 -1 3 -0 -2 0 1 1 -3 -24 4 4 0 -6 -2 1 5 6 3 1 -2 -3 -2 -2 0 1 4 1 -2
0 12 -4 -11 2 3 -11 -2 1 6 3 4 1 1 0 -1 1 5 -1 2 -4 3 -3 -25 13 4 3 4 5 -4 -4 1 5 3 -1 -0 -1 -2 -1 -1 0 0 5 0
12 -4 -11 -15 5 -11 -5 -0 1 9 7 8 4 -3 3 2 -2 -4 3 2 -2 -2 -6 6 2 2 3 -0 4 4 4 -0 3 5 5 -1 -1 -1 -0 -4 -6 -3 1 5
13 -8 -21 -2 3 7 2 5 3 3 11 -1 4 -1 0 -0 2 -2 -2 -4 -11 -2 8 1 4 -0 2 6 2 3 5 6 6 -7 2 5 1 4 4 -6 -4 -6 -5 2
-6 -32 -12 4 1 -2 5 11 3 11 10 3 8 -1 -2 1 -1 -6 -2 -27 1 4 7 9 4 2 3 6 8 7 5 1 0 4 4 -6 -4 6 8 5 3 0 1 -6
Height
3093 3090 3089 3086 3082 3080 3079 3074 3071 3072 3072 3073 3065 3066 3066 3069 3071 3072 3073 3074 3075 3078 3078 3081 3081 3082 3082 3082 3081 3083 3082 3082 3083 3084 3081 3081 3081 3082 3082 3081 3078 3076 3073 3064
3097 3095 3092 3091 3089 3085 3083 3078 3079 3081 3081 3074 3073 3073 3075 3075 3076 3076 3077 3078 3079 3079 3080 3082 3081 3081 3082 3082 3082 3083 3083 3083 3082 3081 3081 3078 3078 3078 3078 3078 3076 3072 3069 3060
3099 3098 3095 3093 3092 3090 3087 3085 3085 3085 3084 3080 3079 3079 3079 3079 3080 3080 3081 3081 3082 3082 3083 3083 3084 3084 3083 3083 3083 3083 3082 3081 3081 3080 3080 3078 3077 3075 3073 3074 3074 3069 3065 3061
3104 3100 3098 3095 3094 3093 3094 3090 3089 3088 3087 3086 3084 3083 3083 3084 3083 3083 3084 3084 3084 3084 3086 3086 3086 3085 3084 3084 3083 3082 3082 3080 3079 3076 3074 3073 3071 3070 3070 3067 3067 3067 3060 3058
3107 3104 3101 3099 3097 3094 3096 3094 3092 3090 3089 3089 3089 3088 3088 3087 3087 3087 3087 3087 3087 3087 3087 3086 3086 3085 3084 3084 3083 3082 3081 3079 3076 3071 3068 3067 3064 3063 3062 3061 3060 3057 3055 3051
3107 3106 3103 3101 3099 3098 3096 3095 3095 3095 3093 3092 3092 3092 3091 3090 3089 3089 3088 3088 3087 3087 3087 3085 3084 3083 3082 3082 3082 3081 3080 3078 3076 3069 3067 3064 3058 3051 3052 3053 3053 3053 3051 3051
3106 3105 3105 3103 3102 3100 3100 3098 3097 3097 3096 3094 3094 3093 3092 3091 3090 3090 3089 3088 3087 3087 3084 3083 3081 3078 3077 3076 3076 3077 3077 3076 3076 3069 3066 3062 3051 3049 3049 3049 3048 3047 3046 3046
3104 3104 3102 3102 3102 3101 3100 3099 3099 3097 3096 3095 3093 3092 3092 3091 3090 3088 3087 3086 3085 3083 3081 3079 3076 3074 3074 3072 3071 3071 3072 3073 3074 3069 3065 3054 3045 3044 3046 3046 3044 3042 3042 3043
3102 3102 3101 3100 3098 3098 3099 3099 3097 3097 3096 3095 3093 3092 3091 3090 3089 3088 3086 3085 3083 3082 3079 3078 3077 3076 3073 3071 3068 3067 3068 3069 3071 3069 3066 3053 3044 3044 3044 3043 3040 3038 3039 3039
3100 3098 3098 3097 3096 3094 3094 3094 3094 3094 3093 3092 3091 3090 3089 3088 3087 3085 3083 3083 3081 3080 3078 3077 3076 3074 3072 3070 3069 3065 3065 3065 3063 3065 3062 3048 3040 3041 3041 3042 3042 3036 3036 3035
3100 3097 3094 3094 3095 3094 3092 3090 3089 3087 3086 3086 3086 3086 3086 3085 3084 3083 3081 3082 3079 3078 3076 3075 3074 3071 3069 3067 3065 3063 3063 3061 3058 3057 3056 3043 3037 3037 3038 3036 3033 3031 3031 3030
3098 3096 3094 3090 3090 3089 3088 3088 3086 3085 3083 3082 3079 3079 3079 3079 3079 3079 3077 3077 3075 3075 3074 3074 3071 3069 3065 3062 3060 3056 3054 3052 3051 3048 3039 3035 3034 3033 3032 3029 3027 3025 3025 3024
3096 3093 3091 3090 3088 3087 3085 3082 3081 3080 3078 3077 3073 3073 3073 3073 3071 3072 3073 3071 3070 3068 3068 3066 3065 3064 3061 3058 3051 3048 3044 3045 3040 3038 3031 3030 3028 3027 3025 3023 3020 3018 3018 3017
3091 3091 3089 3087 3084 3082 3082 3081 3078 3076 3075 3071 3070 3068 3068 3067 3065 3064 3064 3063 3062 3063 3062 3059 3057 3055 3052 3048 3045 3040 3041 3035 3031 3024 3022 3023 3021 3018 3017 3014 3012 3011 3011 3010
3084 3084 3083 3084 3083 3080 3079 3077 3074 3072 3074 3067 3066 3063 3063 3060 3059 3058 3057 3056 3055 3055 3053 3051 3047 3045 3043 3038 3031 3022 3028 3027 3025 3021 3017 3015 3012 3011 3010 3008 3006 3004 3003 3002
3078 3076 3075 3075 3076 3075 3073 3073 3072 3069 3066 3063 3058 3054 3053 3052 3052 3051 3051 3049 3048 3048 3045 3042 3038 3036 3037 3031 3019 3012 3014 3018 3016 3014 3010 3009 3006 3005 3004 3002 3000 2998 2997 2996
3072 3071 3069 3068 3068 3068 3069 3069 3067 3066 3065 3061 3055 3049 3046 3046 3044 3044 3045 3043 3042 3041 3038 3033 3031 3029 3027 3015 3004 3005 3009 3009 3007 3005 3004 3004 3002 3000 2998 2997 2995 2993 2992 2990
3065 3065 3064 3062 3062 3062 3063 3062 3060 3059 3059 3058 3054 3046 3044 3044 3042 3041 3039 3037 3035 3032 3029 3023 3022 3020 3013 2999 2993 2997 3000 2998 2999 2999 2998 2998 2995 2994 2993 2991 2989 2987 2985 2984
3056 3056 3056 3056 3057 3056 3055 3053 3052 3051 3054 3048 3045 3041 3041 3036 3036 3035 3033 3031 3028 3025 3020 3016 3016 3006 2993 2990 2988 2989 2990 2990 2989 2989 2990 2990 2989 2988 2986 2984 2982 2981 2980 2979
3048 3051 3052 3049 3052 3050 3049 3044 3041 3038 3036 3031 3036 3038 3030 3033 3032 3030 3031 3025 3023 3014 3013 3010 3002 2988 2989 2986 2980 2977 2977 2979 2979 2979 2981 2982 2982 2980 2979 2977 2975 2974 2974 2973
3043 3043 3046 3045 3045 3044 3042 3038 3032 3029 3025 3021 3024 3025 3023 3023 3024 3025 3029 3022 3017 3011 3006 3005 2995 2984 2986 2982 2978 2973 2972 2973 2974 2974 2974 2975 2975 2975 2975 2973 2971 2969 2970 2971
3036 3038 3038 3039 3039 3036 3037 3027 3024 3021 3020 3017 3017 3020 3019 3017 3017 3019 3019 3019 3014 3005 3001 2997 2986 2983 2981 2978 2975 2973 2973 2973 2972 2972 2972 2972 2972 2971 2970 2969 2969 2968 2968 2968
3030 3034 3033 3032 3032 3026 3019 3016 3017 3017 3017 3015 3014 3015 3015 3013 3016 3015 3014 3012 3008 3001 2995 2985 2981 2978 2976 2974 2974 2973 2973 2973 2972 2970 2970 2969 2969 2968 2967 2966 2965 2965 2964 2963
3024 3026 3024 3024 3016 3008 3009 3012 3016 3014 3013 3013 3012 3011 3012 3010 3011 3010 3006 3004 3005 2996 2986 2981 2979 2974 2972 2971 2970 2971 2972 2972 2971 2968 2967 2966 2965 2964 2962 2961 2961 2960 2958 2956
3016 3017 3012 3002 3002 3003 3007 3008 3011 3010 3009 3009 3007 3006 3007 3006 3006 3005 3000 2997 2991 2987 2979 2978 2976 2975 2972 2971 2970 2968 2969 2969 2968 2967 2964 2962 2961 2960 2958 2957 2956 2955 2953 2950
3004 3001 2997 2993 2995 2994 2998 3002 3003 3005 3004 3001 3001 2998 2997 2997 2995 2992 2988 2986 2985 2984 2980 2977 2974 2973 2971 2969 2968 2967 2965 2965 2964 2963 2961 2958 2958 2956 2953 2952 2950 2948 2946 2945
2988 2982 2987 2987 2985 2986 2990 2993 2995 2997 2994 2994 2992 2990 2990 2985 2982 2981 2978 2972 2978 2979 2977 2973 2970 2970 2970 2968 2965 2963 2961 2959 2958 2956 2953 2952 2951 2949 2946 2944 2941 2940 2937 2935